Time,TemperatureF,DewpointF,PressureIn,WindDirection,WindDirectionDegrees,WindSpeedMPH,WindSpeedGustMPH,Humidity,HourlyPrecipIn,Conditions,Clouds,dailyrainin,SoftwareType,DateUTC
2013-08-15 00:03:00,60.0,56.0,-100.00,West,270,1.0,2.0,88,-99.99,,,-99.99,,2013-08-15 04:03:00,
2013-08-15 00:23:00,59.0,56.0,-100.00,West,275,2.0,2.0,90,-99.99,,,-99.99,,2013-08-15 04:23:00,
2013-08-15 00:52:00,59.0,56.0,-100.00,WNW,290,1.0,2.0,91,-99.99,,,-99.99,,2013-08-15 04:52:00,
2013-08-15 01:22:00,59.0,56.0,-100.00,SW,230,1.0,1.0,91,-99.99,,,-99.99,,2013-08-15 05:22:00,
2013-08-15 01:52:00,58.0,56.0,-100.00,WSW,250,1.0,2.0,92,-99.99,,,-99.99,,2013-08-15 05:52:00,
2013-08-15 02:02:00,58.0,56.0,-100.00,WSW,250,1.0,2.0,92,-99.99,,,-99.99,,2013-08-15 06:02:00,
2013-08-15 02:21:00,57.0,56.0,-100.00,WSW,245,1.0,2.0,94,-99.99,,,-99.99,,2013-08-15 06:21:00,
2013-08-15 02:52:00,56.0,55.0,-100.00,West,265,0.0,2.0,94,-99.99,,,-99.99,,2013-08-15 06:52:00,
2013-08-15 03:21:00,56.0,55.0,-100.00,WNW,290,1.0,2.0,95,-99.99,,,-99.99,,2013-08-15 07:21:00,
2013-08-15 03:52:00,56.0,55.0,-100.00,WSW,250,1.0,2.0,95,-99.99,,,-99.99,,2013-08-15 07:52:00,
2013-08-15 04:21:00,55.0,54.0,-100.00,WNW,290,1.0,3.0,96,-99.99,,,-99.99,,2013-08-15 08:21:00,
2013-08-15 04:52:00,55.0,54.0,-100.00,SW,235,0.0,4.0,96,-99.99,,,-99.99,,2013-08-15 08:52:00,
2013-08-15 05:01:00,55.0,54.0,-100.00,SW,235,0.0,4.0,96,-99.99,,,-99.99,,2013-08-15 09:01:00,
2013-08-15 05:21:00,54.0,53.0,-100.00,WSW,245,0.0,1.0,96,-99.99,,,-99.99,,2013-08-15 09:21:00,
2013-08-15 05:53:00,53.0,53.0,-100.00,WNW,285,0.0,1.0,97,-99.99,,,-99.99,,2013-08-15 09:53:00,
2013-08-15 06:22:00,53.0,53.0,-100.00,West,280,1.0,1.0,97,-99.99,,,-99.99,,2013-08-15 10:22:00,
2013-08-15 06:32:00,53.0,53.0,-100.00,West,280,1.0,1.0,97,-99.99,,,-99.99,,2013-08-15 10:32:00,
2013-08-15 06:42:00,53.0,53.0,-100.00,West,280,1.0,1.0,97,-99.99,,,-99.99,,2013-08-15 10:42:00,
2013-08-15 06:52:00,53.0,53.0,-100.00,West,275,2.0,4.0,98,-99.99,,,-99.99,,2013-08-15 10:52:00,
2013-08-15 07:12:00,53.0,53.0,-100.00,West,270,0.0,3.0,98,-99.99,,,-99.99,,2013-08-15 11:12:00,
2013-08-15 07:22:00,53.0,53.0,-100.00,WNW,295,1.0,2.0,98,-99.99,,,-99.99,,2013-08-15 11:22:00,
2013-08-15 07:52:00,54.0,53.0,-100.00,SW,220,1.0,3.0,98,-99.99,,,-99.99,,2013-08-15 11:52:00,
2013-08-15 08:21:00,55.0,55.0,-100.00,West,260,1.0,3.0,98,-99.99,,,-99.99,,2013-08-15 12:21:00,
2013-08-15 08:52:00,58.0,58.0,-100.00,SSW,195,1.0,4.0,98,-99.99,,,-99.99,,2013-08-15 12:52:00,
2013-08-15 09:21:00,61.0,60.0,-100.00,West,260,2.0,3.0,95,-99.99,,,-99.99,,2013-08-15 13:21:00,
2013-08-15 09:32:00,61.0,60.0,-100.00,West,260,2.0,3.0,95,-99.99,,,-99.99,,2013-08-15 13:32:00,
2013-08-15 09:52:00,63.0,60.0,-100.00,WNW,285,2.0,4.0,88,-99.99,,,-99.99,,2013-08-15 13:52:00,
2013-08-15 10:22:00,65.0,59.0,-100.00,West,265,3.0,4.0,80,-99.99,,,-99.99,,2013-08-15 14:22:00,
2013-08-15 10:32:00,65.0,59.0,-100.00,West,265,3.0,4.0,80,-99.99,,,-99.99,,2013-08-15 14:32:00,
2013-08-15 10:54:00,67.0,57.0,-100.00,SW,220,3.0,5.0,71,-99.99,,,-99.99,,2013-08-15 14:54:00,
2013-08-15 11:23:00,69.0,56.0,-100.00,South,180,1.0,6.0,62,-99.99,,,-99.99,,2013-08-15 15:23:00,
2013-08-15 11:54:00,71.0,54.0,-100.00,SSW,205,4.0,9.0,55,-99.99,,,-99.99,,2013-08-15 15:54:00,
2013-08-15 12:26:00,71.0,51.0,-100.00,SW,215,3.0,10.0,50,-99.99,,,-99.99,,2013-08-15 16:26:00,
2013-08-15 12:55:00,71.0,51.0,-100.00,WNW,295,5.0,9.0,49,-99.99,,,-99.99,,2013-08-15 16:55:00,
2013-08-15 13:31:00,72.0,-99.9,-100.00,West,265,4.0,9.0,47,-99.99,,,-99.99,,2013-08-15 17:31:00,
2013-08-15 14:00:00,-999.0,-99.9,-100.00,WNW,285,6.0,10.0,-999,-99.99,,,-99.99,,2013-08-15 18:00:00,
2013-08-15 14:36:00,-999.0,-99.9,-100.00,North,355,2.0,7.0,-999,-99.99,,,-99.99,,2013-08-15 18:36:00,
2013-08-15 14:49:00,74.0,50.0,-100.00,SSE,165,3.0,6.0,43,-99.99,,,-99.99,,2013-08-15 18:49:00,
2013-08-15 15:06:00,-999.0,-99.9,-100.00,West,275,6.0,10.0,-999,-99.99,,,-99.99,,2013-08-15 19:06:00,
2013-08-15 15:17:00,76.0,51.0,-100.00,South,185,6.0,9.0,41,-99.99,,,-99.99,,2013-08-15 19:17:00,
2013-08-15 15:34:00,-999.0,-99.9,-100.00,SW,215,3.0,7.0,-999,-99.99,,,-99.99,,2013-08-15 19:34:00,
2013-08-15 15:49:00,76.0,51.0,-100.00,North,0,4.0,11.0,41,-99.99,,,-99.99,,2013-08-15 19:49:00,
2013-08-15 16:14:00,75.0,50.0,-100.00,South,185,5.0,8.0,41,-99.99,,,-99.99,,2013-08-15 20:14:00,
2013-08-15 17:57:00,74.0,51.0,-100.00,NW,325,4.0,6.0,43,-99.99,,,-99.99,,2013-08-15 21:57:00,
2013-08-15 18:29:00,78.0,52.0,-100.00,North,0,4.0,7.0,41,-99.99,,,-99.99,,2013-08-15 22:29:00,
2013-08-15 18:49:00,77.0,51.0,-100.00,NNW,330,6.0,8.0,40,-99.99,,,-99.99,,2013-08-15 22:49:00,
2013-08-15 18:58:00,74.0,51.0,-100.00,NNW,330,3.0,8.0,45,-99.99,,,-99.99,,2013-08-15 22:58:00,
2013-08-15 19:35:00,-999.0,-99.9,-100.00,NW,315,3.0,6.0,43,-99.99,,,-99.99,,2013-08-15 23:35:00,
2013-08-15 19:55:00,75.0,52.0,-100.00,West,275,2.0,4.0,45,-99.99,,,-99.99,,2013-08-15 23:55:00,
2013-08-15 20:24:00,74.0,51.0,-100.00,North,350,2.0,3.0,45,-99.99,,,-99.99,,2013-08-16 00:24:00,
2013-08-15 20:46:00,74.0,51.0,-100.00,North,350,2.0,3.0,45,-99.99,,,-99.99,,2013-08-16 00:46:00,
2013-08-15 20:52:00,71.0,53.0,-100.00,NW,320,1.0,3.0,54,-99.99,,,-99.99,,2013-08-16 00:52:00,
2013-08-15 21:21:00,69.0,55.0,-100.00,WNW,300,0.0,1.0,59,-99.99,,,-99.99,,2013-08-16 01:21:00,
2013-08-15 21:26:00,68.0,56.0,-100.00,NNW,335,1.0,2.0,66,-99.99,,,-99.99,,2013-08-16 01:26:00,
2013-08-15 21:43:00,-999.0,-99.9,-100.00,NNW,335,1.0,-999.0,-999,-99.99,,,-99.99,,2013-08-16 01:43:00,
2013-08-15 21:54:00,69.0,57.0,-100.00,SSE,160,1.0,4.0,65,-99.99,,,-99.99,,2013-08-16 01:54:00,
2013-08-15 22:21:00,67.0,58.0,-100.00,South,175,3.0,4.0,73,-99.99,,,-99.99,,2013-08-16 02:21:00,
2013-08-15 22:52:00,67.0,58.0,-100.00,SSW,210,2.0,3.0,73,-99.99,,,-99.99,,2013-08-16 02:52:00,
2013-08-15 23:22:00,67.0,58.0,-100.00,SSW,205,4.0,6.0,74,-99.99,,,-99.99,,2013-08-16 03:22:00,
2013-08-15 23:53:00,66.0,59.0,-100.00,South,180,2.0,4.0,77,-99.99,,,-99.99,,2013-08-16 03:53:00,